Clemson, SC

6:37 AM EST on December 13, 2017 (GMT -0500)
Oconee County Regional

Weather History for KCEU - December, 2013

Change the Weather History Date:

Sunday, December 1, 2013

  Actual Average Record
Temperature  
Mean Temperature 48 °F -  
Max Temperature 57 °F 57 °F 78 °F (1933)
Min Temperature 39 °F 34 °F 15 °F (1964)
Degree Days  
Heating Degree Days 17    
Moisture  
Dew Point 30 °F    
Average Humidity 54    
Maximum Humidity 86    
Minimum Humidity 37    
Precipitation  
Precipitation 0.00 in - - ()
Sea Level Pressure  
Sea Level Pressure 30.20 in    
Wind  
Wind Speed 1 mph (West)    
Max Wind Speed 6 mph    
Max Gust Speed -    
Visibility 10 miles    
Events      
Averages and records for this station are not official NWS values.
T = Trace of Precipitation, MM = Missing Value Source: NWS Daily Summary

Daily Weather History Graph

Daily Weather History Graph

Search for Another Location

Airport or City:

Trip Planner

Search our weather history database for the weather conditions in past years. The results will help you decide how hot, cold, wet, or windy it might be!

Date:

Astronomy

Dec. 01, 2013 Rise Set
Actual Time 7:20 AM EST 5:20 PM EST
Civil Twilight 6:52 AM EST 5:48 PM EST
Nautical Twilight 6:21 AM EST 6:19 PM EST
Astronomical Twilight 5:51 AM EST 6:49 PM EST
Moon 5:40 AM EST (12/1) 4:27 PM EST (12/1)
Length of Visible Light 10h 55m
Length of Day
10h 00m
Waning Crescent, 2% of the Moon is Illuminated
Dec 1
Waning Crescent
Dec 2
New
Dec 9
First Quarter
Dec 17
Full
Dec 25
Last Quarter

Hourly Weather History & Observations

Time (EST) Temp. Windchill Dew Point Humidity Pressure Visibility Wind Dir Wind Speed Gust Speed Precip Events Conditions
12:54 AM 41.0 °F - 21.9 °F 47% 30.37 in 10.0 mi Calm Calm - N/A   Mostly Cloudy
1:54 AM 41.0 °F 39.0 °F 24.1 °F 51% 30.33 in 10.0 mi North 3.5 mph - N/A   Overcast
2:54 AM 41.0 °F - 23.0 °F 49% 30.32 in 10.0 mi Calm Calm - N/A   Mostly Cloudy
3:54 AM 39.9 °F - 25.0 °F 55% 30.31 in 10.0 mi Calm Calm - N/A   Mostly Cloudy
4:54 AM 39.9 °F - 24.1 °F 53% 30.30 in 10.0 mi Calm Calm - N/A   Overcast
5:18 AM 39.2 °F - 24.8 °F 56% 30.29 in 10.0 mi Calm Calm - N/A   Overcast
5:54 AM 39.9 °F - 25.0 °F 55% 30.29 in 10.0 mi Calm Calm - N/A   Overcast
6:54 AM 41.0 °F - 28.0 °F 60% 30.30 in 10.0 mi Calm Calm - N/A   Overcast
7:45 AM 41.0 °F - 26.6 °F 57% 30.28 in 10.0 mi Calm Calm - N/A   Overcast
7:54 AM 42.1 °F - 26.1 °F 53% 30.28 in 10.0 mi Calm Calm - N/A   Overcast
8:54 AM 43.0 °F - 24.1 °F 47% 30.29 in 10.0 mi Calm Calm - N/A   Overcast
9:23 AM 44.6 °F 43.1 °F 26.6 °F 49% 30.29 in 10.0 mi SW 3.5 mph - N/A   Overcast
9:54 AM 46.0 °F - 26.1 °F 46% 30.28 in 10.0 mi Calm Calm - N/A   Overcast
10:54 AM 48.0 °F - 25.0 °F 41% 30.26 in 10.0 mi WSW 3.5 mph - N/A   Overcast
11:54 AM 52.0 °F - 26.1 °F 37% 30.21 in 10.0 mi Variable 5.8 mph - N/A   Clear
12:54 PM 54.0 °F - 30.0 °F 40% 30.17 in 10.0 mi Variable 5.8 mph - N/A   Clear
1:54 PM 55.9 °F - 34.0 °F 44% 30.13 in 10.0 mi Calm Calm - N/A   Clear
2:54 PM 57.0 °F - 35.1 °F 44% 30.10 in 10.0 mi Calm Calm - N/A   Clear
3:54 PM 57.0 °F - 35.1 °F 44% 30.09 in 10.0 mi Calm Calm - N/A   Clear
4:54 PM 55.9 °F - 34.0 °F 44% 30.07 in 10.0 mi Calm Calm - N/A   Clear
5:54 PM 54.0 °F - 34.0 °F 47% 30.06 in 10.0 mi Calm Calm - N/A   Clear
6:54 PM 53.1 °F - 34.0 °F 48% 30.06 in 10.0 mi Calm Calm - N/A   Clear
7:54 PM 48.0 °F - 37.9 °F 68% 30.06 in 10.0 mi Calm Calm - N/A   Clear
8:54 PM 46.0 °F - 39.0 °F 76% 30.05 in 10.0 mi Calm Calm - N/A   Clear
9:54 PM 45.0 °F - 37.9 °F 76% 30.04 in 10.0 mi Calm Calm - N/A   Clear
10:54 PM 43.0 °F - 39.0 °F 86% 30.04 in 9.0 mi Calm Calm - N/A   Clear
11:54 PM 44.1 °F - 37.0 °F 76% 30.02 in 10.0 mi Calm Calm - N/A   Clear